Regional Weather Roundup
Issued by NWS

Home | Current Version | Previous Version | Text Only | Print | Product List | Glossary Off
Versions: 1 2 3 4 5 6 7 8 9 10 11 12 13 14 15 16 17 18 19 20 21 22 23 24 25 26 27 28 29 30 31 32 33 34 35 36 37 38 39 40 41 42 43 44 45 46 47 48 49 50

000
ASUS43 KBIS 070301
RWRND

NORTH DAKOTA REGIONAL WEATHER ROUNDUP
NATIONAL WEATHER SERVICE BISMARCK ND
900 PM CST FRI MAR 06 2015

NOTE: "FAIR" INDICATES FEW OR NO CLOUDS BELOW 12,000 FEET WITH NO
SIGNIFICANT WEATHER AND/OR OBSTRUCTIONS TO VISIBILITY.


NDZ001>003-009>011-017-070400-
NORTHWEST NORTH DAKOTA

CITY           SKY/WX    TMP DP  RH WIND       PRES   REMARKS
WILLISTON      CLEAR     38  29  70 NW17      30.04R
MINOT          FLURRIES  38  30  73 W28G36    29.92R
MINOT AFB      CLOUDY    37  35  90 NW26      29.91R
$$

NDZ018>021-031>035-040>046-070400-
SOUTHWEST NORTH DAKOTA

CITY           SKY/WX    TMP DP  RH WIND       PRES   REMARKS
BISMARCK       MOCLDY    45  31  58 W18G37    29.98F
DICKINSON      CLOUDY    41  26  55 W10       30.02S
GARRISON         N/A     38  30  73 NW23G31   29.96R
HETTINGER ARPT MOCLDY    37  22  54 NW8       30.07R
$$

NDZ004>008-012>016-024-026-027-054-070400-
NORTHEAST NORTH DAKOTA

CITY           SKY/WX    TMP DP  RH WIND       PRES   REMARKS
GRAND FORKS    FLURRIES  35  25  66 S12       29.86F
GRND FRKS AFB  CLOUDY    35  22  57 SW9       29.85F
DEVILS LAKE    CLOUDY    37  30  75 W22       29.84S
$$

NDZ022-023-025-028>030-036>039-047>053-070400-
SOUTHEAST NORTH DAKOTA

CITY           SKY/WX    TMP DP  RH WIND       PRES   REMARKS
FARGO          MOCLDY    35  23  61 S13       29.92F
JAMESTOWN      MOCLDY    40  29  64 W17G26    29.89F
$$



USA.gov is the U.S. government's official web portal to all federal, state and local government web resources and services.